Regional Weather Roundup
Issued by NWS

Home | Current Version | Previous Version | Text Only | Print | Product List | Glossary On
Versions: 1 2 3 4 5 6 7 8 9 10 11 12 13 14 15 16 17 18 19 20 21 22 23 24 25 26 27 28 29 30 31 32 33 34 35 36 37 38 39 40 41 42 43 44 45 46 47 48 49 50
000
ASUS45 KSLC 210810
RWRUT

UTAH REGIONAL WEATHER ROUNDUP
NATIONAL WEATHER SERVICE SALT LAKE CITY UT
200 AM MDT TUE OCT 21 2014

UTZ001>011-023>025-210900-

NORTHERN UTAH

CITY           SKY/WX    TMP DP  RH WIND       PRES   REMARKS
BRIGHAM CITY   PTCLDY    56  40  53 CALM      29.88S
HILL AFB       MOCLDY    64  39  39 SE21G31   29.90F
LOGAN          MOCLDY    46  39  76 E12       29.89S
OGDEN          PTCLDY    64  39  39 SE14      29.87F
PROVO AIRPORT  MOCLDY    63  39  42 S13       29.95S
SALT LAKE CITY MOCLDY    64  40  41 SE13      29.90S
VERNAL         CLEAR     47  38  71 W5        30.04S
WENDOVER       MOCLDY    57  36  44 NE5       29.84S
HEBER CITY     MOCLDY    55  37  50 CALM      30.00F
WEST JORDAN    MOCLDY    57  46  67 SE10      29.93F

$$

UTZ012>022-026-027-210900-

SOUTHERN/CENTRAL UTAH

CITY           SKY/WX    TMP DP  RH WIND       PRES   REMARKS
BLANDING       PTCLDY    50  40  68 NE7       30.19S
BRYCE CANYON   CLOUDY    35  32  88 SW3       30.18S
CEDAR CITY     CLEAR     55  37  50 S10       30.02F
DELTA          MOCLDY    58  37  44 S12       29.95F
HANKSVILLE       N/A     50  36  57 CALM      30.03S
MILFORD        NOT AVBL
MOAB/CYNLANDS  MOCLDY    59  39  47 CALM      30.00S
PRICE          PTCLDY    50  36  58 NE8       30.07S
ST GEORGE      PTSUNNY   66  39  37 SE5       29.93R
KANAB            N/A     52  36  54 N5        30.08S

$$

REGIONAL REPORTS     COLORADO/ARIZONA

CITY           SKY/WX    TMP DP  RH WIND       PRES   REMARKS
CRAIG, CO      CLEAR     34  30  85 CALM      30.12S
GRAND JUNCTION MOCLDY    57  38  48 SE12      30.04S
RIFLE          MOCLDY    45  38  76 SW3       30.10S
MONTROSE       MOCLDY    50  39  66 SE7       30.13S
CORTEZ         CLOUDY    55  42  61 SW3       30.16R
PAGE, AZ       NOT AVBL
GRAND CANYON   MOCLDY    39  32  76 CALM      30.16S
KINGMAN        CLEAR     60  43  53 SE13      29.97S
FLAGSTAFF      MOCLDY    38  35  89 CALM      30.18S

$$

REGIONAL REPORTS    NEVADA/IDAHO/WYOMING

CITY           SKY/WX    TMP DP  RH WIND       PRES   REMARKS
LAS VEGAS, NV  MOCLDY    75  40  28 S12       29.81S
ELY            PTCLDY    56  35  45 S17       29.98S
ELKO           MOCLDY    57  27  31 S14       29.85R
POCATELLO, ID  LGT RAIN  68  34  28 S18       29.81F
BURLEY         MOCLDY    62  37  39 SE8       29.76F
EVANSTON, WY   PTCLDY    49  34  56 S7        30.05F
ROCK SPRINGS   CLEAR     51  34  52 S8        30.06F
KEMMERER       PTCLDY    43  32  65 N3        30.07S

$$


USA.gov is the U.S. government's official web portal to all federal, state and local government web resources and services.